ASUSAT-OSCAR-37

operational
NORAD ID: 26065 Int'l Des: 2000-004 Owner: ASU Country: US
LEOCIRCULARRETROGRADE

About ASUSAT-OSCAR-37

Description loading...

Live Position

Loading 3D Globe...

Upcoming Passes

Altitude History

Altitude vs Time

uPlot chart will show altitude changes over time

Two-Line Element Set

1 26065U 00004E 26061.02197507 .00000245 00000-0 99611-4 0 9990
2 26065 100.1911 341.7543 0035800 337.6019 22.3598 14.38187176368154
Epoch: Mar 2, 2026 • Age: 34 hours

Current Status

Altitude 772.2 km
Velocity 7.47 km/s
Sub-Earth Point 57.96°N, 12.7°E
Launch Date Jan 27, 2000
Age 26 years
Type other

Technical Details

Classification Payload
Mass 6.00 kg
Dry Mass 6.00 kg
Total Mass 6.00 kg
Length 0.20 m
Diameter 0.30 m
Span 0.30 m
Shape Cyl
Manufacturer ASU
Bus Type ASUSAT
Phase Status In Orbit
Owner/State ASU/US

Large Constellations

Loading constellations...